Flag for Canada Weather past 2 weeks in Prince Rupert, British Columbia, Canada

Now
55 °F

Fog.


Feels Like: 55 °F
Forecast: 50 / 65 °F
Wind: 2 mph from North

Location: Prince Rupert

Current Time: Aug 21, 2014 at 1:26:26 AM

Latest Report: Aug 21, 2014 at 1:00 AM


Visibility: 4 mi

Pressure: 29.98 "Hg

Humidity: 94%

Dew point: 54 °F

Location of Prince RupertLocation

Historic Weather in Prince Rupert — Graph

°F

Prince Rupert temperature yesterday

Maximum temperature yesterday: 63 °F (at 2:00 PM)
Minimum temperature yesterday: 52 °F (at 5:00 AM)
Average temperature yesterday: 57 °F

Past Weeks' High & Low Weather Summary

 TemperatureHumidityPressure
High75 °F (Aug 11, 3:00 PM)100% (Aug 6, 5:00 AM)30.22 "Hg (Aug 6, 5:00 AM)
Low52 °F (Aug 17, 2:00 AM)57% (Aug 11, 3:00 PM)29.91 "Hg (Aug 11, 7:00 PM)
Average59 °F89%30.05 "Hg
* Reported Aug 6 12:03 AM — Midnight between Aug 20 and Aug 21, Prince Rupert, Weather by CustomWeather, © 2014

Note: Actual official high and low records may vary slightly from our data, if they occured in-between our weather recording intervals... More about our weather records

Advertising

Prince Rupert weather history for previous 24 hours

 ConditionsComfort  
Time TempWeatherWind HumidityBarometerVisibility
12:00 AM
Aug 21
55 °FClear.2 mph100%29.98 "Hg9 mi
11:00 PM
Aug 20
57 °FClear.No wind94%29.97 "Hg9 mi
9:57 PM57 °FBroken clouds.No wind94%29.96 "Hg7 mi
8:00 PM59 °FSunny.2 mph88%29.95 "Hg9 mi
7:00 PM63 °FPassing clouds.5 mph83%29.95 "Hg9 mi
6:00 PM63 °FSunny.6 mph77%29.95 "Hg9 mi
5:00 PM61 °FSunny.9 mph83%29.95 "Hg9 mi
4:00 PM63 °FSunny.9 mph77%29.95 "Hg9 mi
3:00 PM63 °FSunny.7 mph77%29.95 "Hg9 mi
2:00 PM63 °FSunny.7 mph73%29.95 "Hg9 mi
1:00 PM61 °FSunny.5 mph83%29.96 "Hg9 mi
12:00 PM59 °FSunny.5 mph82%29.95 "Hg9 mi
11:00 AM57 °FLow clouds.3 mph88%29.95 "Hg9 mi
9:00 AM55 °FScattered clouds.3 mph94%29.95 "Hg9 mi
8:46 AM54 °FPassing clouds.3 mph100%29.94 "Hg7 mi
8:01 AM52 °FFog.7 mph94%29.94 "Hg0 mi
8:00 AM52 °FLight rain. Fog.7 mph94%29.94 "Hg0 mi
7:00 AM52 °FFog.7 mph94%29.94 "Hg0 mi
6:51 AM52 °FFog.7 mph94%29.94 "Hg1 mi
6:00 AM52 °FFog.8 mph100%29.93 "Hg6 mi
5:00 AM52 °FClear.9 mph100%29.93 "Hg8 mi
4:00 AM54 °FLow clouds.6 mph94%29.94 "Hg9 mi
3:00 AM54 °FPassing clouds.7 mph94%29.93 "Hg9 mi
2:00 AM55 °FLow clouds.2 mph94%29.93 "Hg9 mi
1:00 AM54 °FPassing clouds.5 mph100%29.93 "Hg9 mi
Weather by CustomWeather, © 2014

See weather overviewHow to use our weather pages